STARLINK-34348 (64152 NORAD) Tracking and Keplerian Element Data

This shows tracking and keplerian element data for the satellite.

Feedback or suggestion? Click here.




ElementValue
Catalog64152
NameSTARLINK-34348
Epoch Orbit3133
Epoch Day354.1099367
Epoch Year2025
RAAN43.0649
Inclination97.6026
Eccentricity0.0001119
Argument of Perigee89.0251
Mean Anonmoly271.1104
Mean Motion15.05651798
Decay Rate1.881E-05
L11 64152U 25112G 25354.10993670 .00001881 00000+0 13450-3 0 9996
L22 64152 97.6026 43.0649 0001119 89.0251 271.1104 15.05651798 31336



Live tracking and technical data element details for STARLINK-34348 (NORAD 64152). STARLINK-34348 can be tracked NOW for your location showing map with azimuth and elevation plus other details from your city location.







IsCatalogInMostPopularTable: catalog: 64152, numindb: 8
Update: records affected: 1



GetName: 64152 STARLINK-34348

Hit Count: updated at: Mon, 20 Apr 2026 09:50:59 GMT